Погода в Липняках

Россия / Калининградская область     54°24′11″N   21°17′04″E
темп.,
°C
ветер,
м/с
пор.,
м/с
влажн.,
%
обл.,
%
осадки,
мм/ч
давл.,
гПа
погр.,
м
13 мая, чт
чт1323:00+12вюв311850 0.0 1010259
02:00+10вюв38890 0.0 1009164
05:00+9юв23913 0.0 100754
08:00+14в227467 0.0 1006288
11:00+17всв3464100 0.0 1005988
14:00+15всв347544 0.0 1003725
17:00+16всв357849 0.4 1002757
20:00+11всв499417 0.9 1002387
14 мая, пт
пт1423:00+8св379950 0.0 1001192
02:00+10всв2497100 0.0 1001265
05:00+9всв3597100 0.1 1001342
08:00+9всв3496100 0.1 1001277
11:00+11всв1288100 0.0 1002469
14:00+14сз2176100 0.2 1002751
17:00+14ссз4378100 0.3 1003623
20:00+10ссз3588100 0.3 1004177
15 мая, сб
сб1523:00+7сз229598 0.0 100439
02:00+6з229599 0.0 100527
05:00+6зюз229470 0.0 100627
08:00+11юз247662 0.0 1006392
11:00+15зюз346647 0.0 10071062
14:00+17зюз236219 0.6 10071334
17:00+15юз358191 0.6 1006254
20:00+12зюз22885 1.1 100718
16 мая, вс
вс1623:00+9ю229371 0.0 100714
02:00+9ююв3394100 0.0 100759
05:00+8ююв359577 0.0 100788
08:00+12ююв3890100 0.1 1007341
11:00+12юв3109578 2.1 1007462
14:00+16ю488851 4.5 1005627
17:00+17ююз348473 3.0 1004650
20:00+13ююз229164 5.1 100412
17 мая, пн
пн1723:00+11св1193100 0.3 100411
02:00+11зсз3699100 0.3 1004249
05:00+10зсз3799100 0.9 1004365
08:00+10з249723 1.2 1006251
11:00+16зсз126840 0.0 10071059
14:00+17юв016384 0.1 10061224
17:00+17всв33754 0.3 1006433
20:00+13в22865 0.5 100626